Location: Chaves
(41.7330°N, 7.4670°W)
Time: 23:43:53
(UTC+01:00)

ISS - Visible Passes

Search period start: 20 September 2018 00:00
Search period end: 30 September 2018 00:00
Orbit: 403 x 408 km, 51.6° (Epoch: 20 September)

Date Brightness Start Highest point End Pass type
(mag) Time Alt. Az. Time Alt. Az. Time Alt. Az.
20 Sep -1.7 21:05:35 10° SSW 21:06:35 17° S 21:06:35 17° S visible
21 Sep -2.0 20:14:42 10° S 20:16:50 16° SE 20:17:50 14° ESE visible
21 Sep -1.1 21:49:46 10° WSW 21:50:35 16° WSW 21:50:35 16° WSW visible
22 Sep -4.0 20:57:53 10° SW 21:01:09 75° SE 21:01:33 63° E visible
23 Sep -3.2 20:06:16 10° SSW 20:09:22 38° SE 20:12:18 11° ENE visible
23 Sep -1.6 21:42:55 10° W 21:45:01 26° WNW 21:45:01 26° WNW visible
24 Sep -3.0 20:50:43 10° WSW 20:53:55 48° NNW 20:55:33 24° NE visible
25 Sep -3.8 19:58:41 10° SW 20:01:59 86° NW 20:05:17 10° NE visible
25 Sep -1.4 21:36:19 10° WNW 21:38:38 20° NNW 21:38:38 20° NNW visible
26 Sep -1.9 20:43:54 10° W 20:46:45 27° NNW 20:48:54 15° NNE visible
27 Sep -2.6 19:51:35 10° W 19:54:42 40° NNW 19:57:51 10° NE visible
27 Sep -1.2 21:29:45 10° NW 21:31:45 16° N 21:31:45 16° N visible
28 Sep -1.4 20:37:15 10° WNW 20:39:41 19° NNW 20:41:51 11° NNE visible
29 Sep -1.8 19:44:46 10° WNW 19:47:31 24° NNW 19:50:16 10° NE visible
29 Sep -1.1 21:22:56 10° NW 21:24:33 14° N 21:24:33 14° N visible
